Lapse_Rate
7.1 6.7 7.1 7.1 6.9 6.8 6.4 6.1 6.5 6.5 6.1 6.1 6.2 6.2 6.1 6.2 6.5 6.6 6.7 6.5 6.3 6.1 6.0 5.8 5.7 5.7 5.6 5.7 5.7 5.7 5.8 5.9 6.0 6.0 6.0 6.0 6.0 6.0 5.9 5.8 5.8 5.9 6.0 5.9 5.9 5.9 5.8 5.9 6.0
7.0 6.9 7.3 7.1 6.8 6.7 6.6 6.8 6.6 6.8 6.5 6.3 5.9 6.0 6.2 6.3 6.3 6.6 6.7 6.7 6.2 6.1 6.1 5.9 5.7 5.6 5.5 5.6 5.7 5.8 5.7 5.8 6.1 6.2 6.1 6.0 5.9 5.8 5.9 5.8 5.8 5.8 5.8 5.9 5.9 5.9 5.9 5.9 5.9
6.9 6.9 7.1 7.0 6.7 6.7 6.7 6.9 7.1 6.9 6.5 6.3 5.9 6.1 6.3 6.6 6.3 6.5 6.8 6.7 6.5 6.3 6.1 5.9 5.8 5.7 5.7 5.8 5.8 5.9 5.8 5.9 6.0 6.0 6.0 5.9 5.9 5.9 5.7 5.6 5.6 5.6 5.7 5.7 5.8 5.9 5.9 5.9 5.8
6.8 7.1 7.2 7.1 7.0 7.0 7.2 7.1 7.2 6.9 6.6 6.6 6.4 6.4 6.5 6.7 6.8 6.6 6.6 6.6 6.5 6.3 6.1 5.9 5.9 5.9 5.8 5.8 5.9 5.8 5.9 5.9 5.9 5.8 5.8 5.9 5.9 5.9 5.8 5.6 5.6 5.6 5.7 5.7 5.7 5.6 5.8 5.9 5.9
6.8 7.2 7.0 7.3 7.3 7.0 7.2 7.4 7.3 7.0 6.7 6.6 6.9 6.9 6.8 6.9 6.7 6.5 6.5 6.4 6.4 6.4 6.2 6.0 6.0 6.0 5.9 5.9 5.8 5.8 5.9 5.9 5.9 5.8 5.7 5.8 5.8 5.7 5.7 5.5 5.5 5.5 5.6 5.7 5.7 5.6 5.5 5.6 5.8
7.3 7.3 7.1 7.6 7.8 7.3 7.3 7.4 7.4 7.4 7.1 7.0 6.7 7.0 6.9 6.9 6.7 6.5 6.4 6.3 6.2 6.3 6.2 6.2 6.1 6.1 6.0 5.9 5.8 5.9 5.9 5.9 5.8 5.8 5.9 5.8 5.7 5.7 5.6 5.5 5.4 5.5 5.4 5.4 5.6 5.5 5.5 5.4 5.6
7.7 7.5 7.2 7.5 8.0 7.7 7.4 7.5 7.5 7.5 7.5 7.4 7.1 7.2 6.9 7.0 6.9 6.5 6.4 6.4 6.3 6.1 6.0 6.1 6.1 6.2 6.1 6.1 5.8 5.9 5.9 5.8 5.8 5.8 5.9 5.8 5.7 5.6 5.4 5.3 5.3 5.4 5.3 5.3 5.3 5.4 5.5 5.4 5.4
8.0 8.1 7.5 7.3 7.8 8.2 7.9 7.7 7.9 7.9 7.4 7.5 7.4 7.1 7.0 6.8 6.9 6.3 6.4 6.3 6.3 6.2 6.0 5.9 6.1 6.2 6.2 6.2 6.0 5.9 6.0 5.8 5.8 5.8 5.9 5.8 5.6 5.4 5.0 5.1 5.0 5.1 5.1 5.2 5.3 5.3 5.4 5.4 5.3
8.1 7.7 7.9 8.0 7.9 8.6 8.7 8.2 8.3 8.3 7.7 7.5 7.4 7.3 7.1 6.7 6.5 6.3 6.4 6.2 6.2 6.2 6.2 6.1 6.2 6.4 6.4 6.4 6.2 6.0 6.0 6.0 5.9 5.9 5.8 5.5 5.4 5.3 5.0 5.1 4.8 4.9 5.1 5.2 5.0 5.1 5.2 5.4 5.4
8.1 8.0 8.0 8.3 8.6 8.8 8.9 8.6 8.3 8.4 8.1 7.8 7.4 7.3 7.0 7.0 6.5 6.1 6.1 6.0 5.9 6.0 6.0 6.1 6.3 6.4 6.6 6.6 6.4 6.2 6.0 6.0 5.9 5.9 5.8 5.5 5.4 5.2 5.1 5.0 5.0 5.1 5.1 5.4 5.2 5.1 5.2 5.2 5.3
8.4 8.3 8.4 8.8 8.7 8.7 8.9 8.6 8.2 8.4 8.4 8.1 7.4 7.2 6.9 6.4 6.1 6.0 5.9 6.0 6.2 6.0 5.9 6.0 6.2 6.3 6.4 6.6 6.5 6.4 6.1 6.0 5.9 5.9 5.8 5.6 5.4 5.3 5.3 5.1 5.0 5.1 5.2 5.2 5.2 5.1 5.1 5.2 5.3
8.2 8.0 8.4 8.9 8.7 8.8 8.8 8.6 8.6 8.3 8.3 8.1 7.8 7.7 7.6 7.0 6.5 6.0 6.0 6.0 6.3 6.1 6.1 6.0 6.2 6.3 6.2 6.3 6.4 6.5 6.3 6.1 5.8 5.8 5.7 5.6 5.5 5.5 5.5 5.1 5.4 5.3 5.3 5.1 5.1 5.0 5.2 5.3 5.3
8.2 8.3 8.6 9.1 9.0 9.0 9.0 9.0 8.7 8.5 8.4 8.1 8.0 7.9 7.7 7.3 7.0 6.6 6.1 6.3 6.2 6.2 6.2 5.9 6.0 6.0 6.1 6.2 6.2 6.2 6.3 6.0 6.0 5.8 5.7 5.5 5.4 5.4 5.4 5.4 5.3 5.2 5.2 5.2 5.2 5.2 5.1 5.2 5.1
8.1 8.5 9.0 9.4 9.4 9.3 9.2 9.0 8.7 8.5 8.5 8.3 8.0 8.0 8.0 7.8 7.5 7.2 6.8 6.4 6.4 6.2 6.2 6.1 5.5 5.6 5.8 5.8 6.0 6.0 6.1 5.9 5.9 5.7 5.7 5.5 5.3 5.3 5.3 5.4 5.2 5.5 5.2 5.3 5.3 5.2 5.3 5.2 5.2
8.6 9.0 9.1 9.5 9.4 9.3 9.2 9.2 9.0 8.7 8.5 8.5 8.2 7.9 8.1 7.9 7.7 7.5 7.2 7.2 6.9 6.6 6.4 5.8 5.9 5.9 5.7 5.6 5.7 5.8 5.8 5.9 5.8 5.7 5.8 5.6 5.4 5.2 5.2 5.4 5.4 5.1 5.2 5.3 5.2 5.1 5.1 5.3 5.4
9.1 9.0 9.4 9.3 9.3 9.6 9.3 9.3 8.9 8.8 8.7 8.7 8.4 8.0 8.0 7.9 7.7 7.4 7.3 6.8 6.7 6.7 6.6 5.7 6.3 6.2 5.9 5.8 5.6 5.7 5.7 5.6 5.6 5.7 5.7 5.6 5.5 5.4 5.5 5.5 5.4 5.3 5.3 5.2 5.1 5.0 5.0 5.2 5.3
9.0 9.0 9.3 9.5 9.1 9.1 9.4 9.2 9.0 8.9 8.8 8.9 8.4 7.9 7.9 8.0 7.6 7.5 7.3 7.0 6.7 6.6 6.0 6.2 6.4 6.2 6.2 6.1 5.8 5.7 5.8 5.6 5.6 5.6 5.5 5.5 5.6 5.6 5.6 5.4 5.3 5.4 5.4 5.4 5.2 5.1 5.1 5.2 5.4
9.0 8.9 9.2 9.0 9.0 9.3 9.3 9.3 9.3 8.9 8.8 8.7 8.0 7.8 7.8 7.8 7.6 7.2 7.3 7.1 7.1 6.8 6.4 6.3 6.7 6.6 6.6 6.2 6.2 6.0 6.1 5.8 5.7 5.7 5.5 5.5 5.6 5.8 5.6 5.5 5.4 5.4 5.4 5.5 5.5 5.4 5.3 5.2 5.3
8.9 8.8 9.0 9.2 9.1 9.2 9.4 9.4 9.0 8.7 8.6 8.5 8.0 7.6 7.6 7.7 7.5 7.2 6.9 6.9 7.1 7.2 6.7 6.6 6.7 6.5 6.6 6.4 6.4 6.3 6.1 5.9 5.8 5.9 5.6 5.4 5.6 5.6 5.8 5.7 5.6 5.6 5.5 5.4 5.5 5.6 5.4 5.3 5.4
8.9 8.9 9.0 9.1 9.1 8.9 9.1 9.3 8.8 8.6 8.5 8.3 8.1 7.5 7.4 7.5 7.4 7.2 7.0 7.0 7.1 7.0 6.9 6.7 6.7 6.4 6.3 6.2 6.2 6.2 6.3 6.3 6.3 6.1 6.0 5.9 5.6 5.7 5.6 5.6 5.6 5.7 5.7 5.6 5.5 5.4 5.6 5.4 5.3
8.9 9.0 9.1 8.9 8.8 8.6 8.6 8.8 8.6 8.4 8.5 8.2 8.2 7.8 7.5 7.6 7.2 7.0 6.9 7.0 7.1 6.9 6.8 6.9 7.0 6.9 6.4 6.5 6.4 6.0 6.1 5.9 5.9 6.0 6.1 5.8 6.2 5.7 5.6 5.5 5.6 5.6 5.9 5.7 5.7 5.6 5.5 5.6 5.6
9.0 9.2 9.0 9.1 8.8 8.8 8.7 8.6 8.5 8.4 8.3 8.2 8.1 7.9 7.6 7.5 7.2 6.8 6.8 7.1 6.9 6.8 6.9 7.0 7.0 7.0 6.7 6.7 6.4 5.9 5.2 5.5 5.5 6.0 6.3 6.2 6.2 6.0 5.7 5.8 5.8 5.5 5.5 5.8 5.7 5.6 5.6 5.5 5.7
9.1 9.0 9.1 9.3 8.6 9.1 8.8 8.5 8.8 8.3 8.2 8.2 8.2 8.0 7.6 7.4 7.4 7.0 7.1 7.0 7.1 6.9 6.7 6.7 6.9 6.9 6.8 6.7 6.6 6.4 6.4 6.3 6.1 6.3 6.0 5.9 5.9 5.9 5.7 5.6 5.5 5.6 5.8 5.5 5.5 5.6 5.7 5.7 5.6
9.0 9.2 8.9 9.0 9.0 8.6 8.8 8.3 8.9 8.6 8.5 8.1 8.0 7.9 7.6 7.5 7.6 7.3 7.1 7.2 7.2 6.8 6.8 6.7 6.5 6.7 6.7 6.5 6.5 6.4 6.5 6.3 6.2 6.1 5.8 5.8 5.8 5.6 5.3 5.3 5.5 5.5 5.6 5.5 5.7 5.9 5.8 5.7 5.7
9.3 9.1 8.8 8.2 7.6 7.7 8.5 7.9 9.0 8.6 8.4 8.2 8.1 7.9 7.7 7.7 7.6 7.4 7.3 7.3 7.3 7.1 6.9 6.9 6.7 6.5 6.4 6.4 6.4 6.7 6.8 6.5 6.3 6.1 5.9 5.7 5.5 5.2 5.0 4.8 4.9 5.0 5.2 5.3 5.6 5.7 5.8 5.8 5.8
9.1 9.2 9.1 7.9 6.8 8.0 8.3 8.2 9.0 8.5 8.5 8.3 8.1 8.4 7.7 7.7 7.6 7.3 7.2 7.3 7.3 7.1 7.1 6.9 6.9 6.7 6.6 6.6 6.6 6.6 6.5 6.3 6.2 6.0 6.0 5.7 5.5 5.0 5.2 4.9 5.0 5.0 5.0 5.1 5.1 5.5 5.5 5.7 6.0
9.2 9.0 9.2 9.1 7.8 7.9 8.5 8.9 9.1 8.6 8.2 8.3 8.1 8.8 8.1 7.9 7.5 7.4 7.0 7.0 7.0 7.0 7.0 7.0 7.0 7.0 6.9 6.7 6.3 6.1 6.0 6.0 5.9 5.8 5.8 5.7 5.4 5.2 5.3 5.1 5.1 5.2 4.9 5.0 5.3 5.4 5.4 5.4 5.7
9.2 9.3 9.2 8.9 7.1 7.4 8.1 8.2 8.7 8.9 8.4 8.4 8.3 8.3 8.1 8.1 7.6 7.1 7.1 6.9 7.0 7.0 7.0 6.9 6.9 6.8 6.6 6.4 6.0 5.9 5.8 5.6 5.7 5.7 5.7 5.5 5.4 5.5 5.3 5.3 5.3 5.3 5.3 5.0 4.9 5.0 5.2 5.4 5.6
8.9 9.1 9.1 8.9 8.6 6.9 6.2 8.0 9.0 8.6 8.0 8.4 8.4 8.4 8.5 8.4 8.1 7.6 7.3 7.0 7.0 7.1 7.0 6.8 6.7 6.5 6.3 6.0 5.7 5.7 5.8 5.8 5.6 5.6 5.4 5.4 5.4 5.4 5.4 5.6 5.3 5.4 5.0 4.7 4.7 5.1 5.1 5.2 5.3
9.1 9.2 9.3 9.2 8.4 8.4 8.0 8.4 9.1 9.0 8.6 8.1 8.3 8.5 8.5 8.2 7.8 7.4 7.1 6.6 6.4 6.9 7.0 6.8 6.5 6.3 6.1 5.8 5.8 5.7 5.7 5.9 5.9 5.7 5.4 5.2 5.3 5.4 5.5 5.5 5.3 5.1 5.4 5.1 4.9 5.0 4.8 5.1 5.2
Wind_Speed
10 9 3 2 4 5 2 2 1 3 2 2 3 4 5 3 3 3 4 6 16 16 17 18 18 17 15 15 18 18 19 19 19 18 18 16 15 15 16 15 13 14 14 16 15 15 15 15 15
5 6 1 1 5 4 4 2 2 2 2 4 6 3 3 2 4 8 6 11 17 17 17 16 18 18 15 16 17 18 19 18 17 18 17 16 15 14 14 14 12 11 12 14 15 15 14 13 14
4 1 3 4 3 2 2 2 3 1 3 2 3 5 2 2 6 11 7 15 16 14 17 16 19 18 16 15 16 17 17 16 16 16 16 15 15 14 13 13 12 13 12 12 13 13 14 14 13
3 2 3 4 2 2 4 2 3 1 2 3 4 5 4 2 8 6 15 14 14 12 15 19 20 19 18 17 15 17 17 16 14 14 14 15 14 13 13 13 11 11 11 12 13 12 13 13 13
3 3 4 4 5 3 1 1 3 2 2 3 2 3 4 1 10 16 16 13 13 9 16 20 20 19 18 17 16 15 16 15 13 13 12 12 13 13 11 11 11 10 8 10 11 10 11 11 11
3 2 4 3 3 4 2 1 1 1 4 3 5 5 3 9 12 13 14 12 10 12 14 16 21 19 17 15 15 15 14 13 13 12 12 12 12 11 10 9 8 9 10 9 9 10 10 9 8
3 3 2 3 3 2 2 4 2 3 4 2 7 4 2 3 9 11 10 8 9 12 12 14 16 19 18 15 15 15 14 13 12 12 12 11 11 10 10 9 8 7 7 8 8 8 8 10 7
2 2 0 4 3 4 5 6 4 4 1 6 4 5 4 6 11 9 8 6 6 7 9 10 13 16 15 15 17 17 16 14 14 13 13 12 11 10 9 7 5 7 7 8 9 9 8 9 9
3 3 2 4 6 5 8 6 4 1 5 2 4 6 9 18 14 11 8 5 5 6 7 8 10 11 14 15 16 18 17 16 16 15 14 12 10 9 9 8 8 6 9 9 10 10 9 10 10
3 2 6 7 6 6 9 6 9 2 3 2 7 13 20 20 16 14 13 12 11 12 10 8 8 8 12 13 13 14 14 14 14 13 13 12 10 10 10 8 8 6 8 11 11 11 12 12 10
3 4 4 6 5 8 10 5 4 9 3 6 9 16 18 17 14 14 12 12 12 10 9 9 7 8 10 10 10 9 12 11 12 13 13 11 11 10 9 9 8 7 10 9 9 7 11 12 8
3 9 5 5 7 4 8 8 6 10 6 7 15 21 17 18 15 14 13 13 12 12 11 9 7 7 10 9 8 9 7 8 8 12 14 10 8 6 5 6 9 8 6 8 8 6 6 7 6
3 5 7 7 8 5 6 7 6 6 4 13 16 18 16 13 13 11 10 9 8 12 12 10 9 8 8 5 5 6 8 9 10 11 13 13 8 3 6 7 8 8 7 8 6 6 6 5 6
4 7 10 5 5 5 7 3 6 5 12 13 15 15 13 16 14 9 9 12 11 3 2 3 5 5 6 7 6 6 8 10 10 11 12 14 11 8 6 5 5 7 9 9 8 6 4 5 6
5 6 8 4 6 6 7 3 5 9 15 16 13 12 13 13 11 15 15 15 9 6 7 7 7 7 6 7 7 8 8 9 8 11 13 14 14 12 9 5 4 9 9 9 8 6 6 4 5
5 5 5 5 5 4 4 7 4 11 16 14 13 12 10 7 13 12 14 9 10 12 12 14 14 12 10 9 7 6 7 9 11 11 11 14 15 14 10 5 5 10 9 8 5 4 3 4 4
7 2 4 9 6 4 4 3 1 6 11 12 10 9 8 6 7 8 6 9 12 12 14 16 9 11 11 8 7 8 8 8 11 10 11 13 14 15 12 7 9 8 6 5 3 3 3 3 4
4 4 5 4 7 6 2 1 6 2 7 9 7 7 6 8 9 4 5 8 10 12 11 9 6 8 6 4 4 3 3 6 11 11 12 13 12 13 11 8 7 8 4 4 3 4 4 3 3
2 2 5 5 3 4 3 4 5 1 6 7 7 7 7 8 2 6 3 6 6 6 5 6 6 5 3 2 3 3 6 6 5 7 9 10 13 12 11 6 5 6 6 6 6 3 5 3 4
4 1 6 4 4 5 1 5 4 3 2 4 7 6 8 4 6 9 7 6 6 6 5 6 7 6 5 3 2 2 2 3 6 6 9 12 14 13 10 8 8 8 5 6 6 6 3 3 4
2 3 4 5 2 4 4 4 4 1 1 5 5 6 7 10 11 10 9 9 5 7 6 5 3 5 3 3 1 1 4 5 4 8 8 8 12 15 14 12 9 8 8 6 7 7 9 5 4
6 8 5 2 4 4 2 3 5 4 6 4 5 5 9 9 7 8 7 8 9 6 5 5 3 3 2 1 2 3 3 8 7 10 7 7 7 10 14 12 8 8 7 7 7 7 7 5 5
8 5 3 2 3 4 2 4 6 3 6 5 5 7 7 8 8 8 8 7 6 6 6 6 6 3 1 2 5 4 8 8 3 5 8 7 6 8 10 10 9 8 7 7 7 5 7 6 3
4 4 8 6 2 3 2 4 6 6 7 4 4 6 7 5 6 4 4 4 6 7 7 7 7 4 5 5 3 5 5 5 3 3 4 5 6 6 8 8 8 8 7 6 5 5 7 7 6
6 6 2 2 4 5 1 2 9 4 6 7 7 4 7 3 5 4 5 3 4 8 9 8 8 6 6 6 5 4 5 4 1 3 4 7 6 5 7 6 7 6 5 4 4 3 4 6 6
4 7 6 5 4 4 1 5 5 3 5 3 4 1 4 5 2 6 1 1 6 7 8 7 7 4 5 6 6 4 4 2 1 3 4 4 4 4 6 2 4 5 6 5 4 2 3 5 6
3 3 4 8 4 3 3 7 7 7 9 4 6 8 8 6 6 7 6 5 7 6 6 7 7 6 5 6 5 4 4 3 2 4 4 3 4 4 4 2 5 4 3 2 1 0 3 5 6
4 6 4 3 4 3 5 6 6 4 8 7 6 8 7 6 6 7 6 5 4 6 7 7 7 7 5 5 4 3 3 0 2 4 5 6 6 5 5 3 2 3 4 3 3 1 3 4 5
1 2 7 6 4 5 2 6 7 7 8 10 7 7 8 9 8 5 1 3 6 5 6 6 5 7 6 5 2 2 1 2 4 4 5 6 6 7 5 3 2 4 5 5 1 3 5 5 6
3 5 6 5 4 0 3 6 1 5 5 6 8 9 9 7 8 10 11 14 11 5 5 5 4 5 6 5 4 1 2 2 4 4 5 5 6 6 6 4 5 3 5 5 3 2 4 5 8
Wind_Direction
152 166 152 146 53 57 41 325 302 334 331 58 139 148 164 97 170 208 142 151 138 142 155 152 150 143 139 136 132 133 133 132 129 123 121 122 118 111 119 123 119 124 126 125 122 117 118 123 123
182 190 193 44 74 44 298 239 266 268 91 97 100 99 68 95 75 124 115 152 142 140 151 154 153 147 142 141 138 140 139 138 133 128 125 123 119 118 123 126 129 121 122 119 120 122 124 125 130
220 3 74 78 93 99 271 338 333 52 137 53 89 57 51 108 95 149 139 147 139 142 146 158 155 150 145 147 144 145 145 145 140 135 131 132 131 130 130 128 136 139 136 129 130 130 133 137 137
350 13 41 82 111 182 191 282 227 285 275 146 112 63 71 128 147 145 140 143 135 141 145 162 160 156 155 152 153 151 153 153 148 143 138 141 138 137 138 137 140 143 145 144 134 137 140 143 143
357 53 30 21 347 329 299 230 153 170 22 41 64 50 90 55 115 133 142 146 142 138 155 164 167 164 161 160 159 158 159 161 160 156 153 151 145 144 148 146 149 149 149 137 137 143 144 153 153
46 52 30 344 311 325 316 282 359 357 79 141 86 103 158 123 131 144 148 149 148 146 160 168 172 171 170 170 168 166 168 166 166 162 166 163 157 156 156 154 158 162 160 157 156 157 159 163 166
133 107 181 288 302 309 237 133 285 140 129 131 136 95 32 125 128 138 139 135 150 155 161 172 179 182 183 185 182 177 179 178 176 179 179 175 174 173 168 169 176 183 183 177 175 176 182 172 176
126 86 126 228 199 269 155 153 181 155 154 111 135 154 176 155 131 120 113 118 141 165 173 175 182 190 191 195 195 190 186 189 191 193 195 193 189 191 191 190 212 210 211 206 195 195 201 191 183
137 74 245 231 156 233 152 173 139 1 123 114 141 149 142 131 130 124 123 123 157 180 185 181 188 189 187 193 202 199 197 198 203 204 204 208 214 203 201 203 205 237 247 232 223 214 210 213 199
116 118 223 211 202 197 175 165 140 118 168 27 70 93 126 135 145 151 167 175 186 194 195 188 189 187 180 193 204 200 207 202 208 210 214 210 211 221 213 206 206 225 263 260 240 231 226 220 222
192 218 250 250 171 179 166 162 124 132 270 212 163 142 143 145 159 168 181 187 193 194 199 192 185 186 190 197 198 203 209 203 208 210 216 216 221 223 225 208 226 249 258 265 258 256 231 220 220
267 242 219 277 135 144 159 138 125 168 225 171 154 153 151 161 174 181 185 186 188 194 201 191 185 187 200 207 202 205 206 199 206 207 215 207 225 210 208 204 218 230 263 261 250 249 252 249 241
179 308 335 291 132 168 143 170 152 199 131 124 135 155 166 173 181 190 191 200 190 202 197 193 187 197 200 208 222 215 215 212 214 210 217 213 216 212 199 213 219 236 243 234 235 231 237 243 247
271 296 299 263 170 146 159 130 134 142 136 138 146 163 172 181 186 192 196 201 193 158 177 197 216 213 200 212 207 217 221 223 208 216 216 216 220 222 205 209 213 230 223 228 225 211 218 242 237
282 326 334 247 170 188 136 95 214 143 146 157 156 160 174 191 191 199 205 199 185 175 134 160 200 199 218 217 229 221 221 223 217 222 218 216 214 219 214 212 202 229 223 222 229 221 216 238 242
18 43 347 346 3 343 111 259 275 149 151 170 171 156 169 193 205 205 206 181 161 157 160 176 204 195 197 211 219 226 215 225 234 227 220 217 217 217 207 211 219 213 205 202 208 196 206 219 221
16 325 2 321 37 325 93 225 346 143 157 173 179 182 166 192 230 231 188 164 169 169 174 208 186 191 199 205 223 226 217 224 239 241 230 224 214 215 214 217 229 192 207 206 198 196 196 219 225
307 345 315 286 318 47 72 142 22 141 166 177 180 190 186 215 227 248 181 166 175 184 200 207 201 199 183 189 207 228 227 250 247 239 232 231 219 211 208 220 218 199 203 197 187 202 198 216 221
197 194 282 273 243 79 355 55 16 247 150 170 197 197 210 228 260 248 187 195 204 193 146 195 190 190 142 138 187 207 236 245 248 244 256 230 229 222 208 221 216 198 209 217 197 185 201 233 213
207 327 289 296 18 90 326 56 63 28 157 187 181 219 216 222 218 241 243 221 215 237 176 187 211 183 183 180 184 111 46 45 329 296 252 235 241 230 211 214 216 198 202 197 193 189 189 221 180
236 205 244 243 71 63 131 11 339 314 284 190 180 207 238 219 220 216 234 222 208 215 199 196 189 78 86 166 183 357 69 6 322 310 275 250 233 237 226 216 211 196 187 206 201 200 199 215 195
308 186 230 206 104 187 29 255 262 246 292 214 209 216 239 245 217 230 200 210 200 198 152 120 151 138 163 89 187 132 179 225 227 262 290 297 266 244 234 230 209 195 193 204 207 196 205 192 209
248 48 352 94 108 109 7 64 266 28 264 246 201 236 234 234 219 229 228 206 166 156 170 141 147 158 187 167 194 172 198 251 254 277 291 315 299 281 252 228 217 189 188 212 196 189 200 205 194
217 101 36 45 77 35 335 139 283 195 201 197 188 213 233 209 241 247 252 214 161 144 142 138 143 190 204 211 196 160 171 184 236 279 302 297 298 296 279 239 216 204 192 188 199 200 210 206 215
87 64 343 340 20 222 121 61 241 226 216 182 181 197 176 188 174 66 334 342 136 139 143 155 160 188 199 181 136 125 114 125 137 282 289 319 330 326 293 234 198 176 180 153 146 190 220 206 209
160 153 153 204 188 253 111 240 259 234 160 181 262 222 157 174 172 99 317 116 102 141 148 149 157 136 114 121 118 120 109 76 359 319 313 322 326 334 334 303 129 138 155 151 153 160 220 220 224
181 176 166 103 25 57 280 292 300 237 259 240 219 178 182 166 149 132 202 164 122 129 136 139 129 125 126 123 123 107 61 30 339 316 317 318 324 342 352 67 127 136 144 150 196 212 262 242 236
192 151 69 13 124 228 298 287 245 237 201 175 183 176 163 155 154 166 172 136 113 126 123 126 136 139 146 126 119 126 124 234 328 342 333 327 323 322 334 349 221 187 181 202 241 251 258 279 254
149 96 56 111 102 155 217 265 219 216 200 175 176 168 173 181 161 161 79 142 120 110 118 128 135 138 127 116 127 163 246 321 344 327 314 308 308 306 301 296 297 232 219 197 126 7 343 316 286
210 175 132 122 218 169 161 270 172 263 196 172 143 166 178 171 68 36 31 15 341 135 132 140 159 142 152 151 147 202 287 316 323 323 320 318 313 313 304 280 281 255 224 211 184 212 268 297 295